Погода в Колумбусе

США     39°57′45″N   82°59′47″W
темп.,
°C
ветер,
м/с
пор.,
м/с
влажн.,
%
обл.,
%
осадки,
мм/ч
давл.,
гПа
погр.,
м
20 апреля, вт
вт2023:00+9ссз58787 0.0 1014457
02:00+8ссз4775100 0.0 1016685
05:00+6сз3575100 0.0 1016628
08:00+6ссз3470100 0.0 1018669
11:00+7сз126398 0.0 1018828
14:00+9ссз1260100 0.0 1016940
17:00+7ссв4572100 0.0 1014542
20:00+5ссв4584100 0.1 1014509
21 апреля, ср
ср2123:00+3ссв4788100 1.4 1012477
02:00+2с61195100 2.9 1012650
05:00+1ссз51298100 4.5 1012665
08:00+1сз51095100 4.9 1015617
11:00+2сз6890100 0.6 1018825
14:00+4сз59635 0.7 10191415
17:00+5сз595468 0.0 10191631
20:00+3з476687 0.0 1020817
22 апреля, чт
чт2223:00+2з368612 0.2 1020317
02:00+1з28845 0.2 1020321
05:000з39785 0.0 1020349
08:00+1з37706 0.0 1021288
11:00+6зсз58465 0.0 10211595
14:00+8зсз6103598 0.0 10212258
17:00+8зсз693745 0.0 10212093
20:00+7зсз38485 0.0 10211332
23 апреля, пт
пт2323:00+5з38600 0.0 1023306
02:00+4з28610 0.0 1023267
05:00+3зюз28640 0.0 1023238
08:00+3зюз39635 0.0 1024278
11:00+10зюз3546100 0.0 1023982
14:00+13зюз45383 0.0 10211871
17:00+14зюз453734 0.0 10192115
20:00+12юз254998 0.0 1019318
24 апреля, сб
сб2423:00+9ююз256494 0.0 1019142
02:00+7ююз2472100 0.0 1019112
05:00+7ююв2373100 0.0 1019112
08:00+7юв2374100 0.3 1018146
11:00+8юв3569100 0.1 1017293
14:00+11юв2556100 0.1 1015420
17:00+11св2366100 0.1 1013105
20:00+9всв1381100 0.3 1011117